Wind_Speed
31 29 28 27 25 23 21 20 20 21 22 23 24 24 24 24 24 24 25 26 27 27 28 28 29 30 30 31 32 32 33 33 34 34 35 35 36 37 37 38 39 40
30 29 28 27 26 25 24 23 22 21 21 21 22 23 24 25 26 26 26 27 27 28 29 29 30 31 31 32 32 33 34 35 35 35 36 36 37 38 39 39 40 41
30 29 28 27 26 25 25 24 23 22 22 21 21 21 22 22 23 25 26 26 27 27 28 29 30 30 31 32 32 33 34 35 35 36 36 36 37 37 39 40 40 41
28 28 28 28 27 27 26 25 24 24 23 23 22 22 22 22 22 22 23 24 25 25 26 27 28 28 29 29 30 30 31 32 33 33 34 35 35 35 36 37 38 39
28 28 28 27 27 27 27 27 26 26 25 25 24 24 23 23 23 22 22 22 22 23 24 24 25 26 26 26 27 27 28 28 29 30 31 31 32 33 33 34 35 36
29 29 28 28 28 28 27 27 27 27 27 27 27 26 25 25 24 24 23 22 22 22 22 23 23 24 24 25 25 25 26 26 27 28 28 29 29 30 31 31 32 32
30 30 29 29 29 29 29 28 28 28 28 28 28 28 27 26 26 25 25 24 23 23 23 23 23 23 24 24 24 25 25 26 26 27 27 28 29 29 30 31 31 32
31 31 30 30 30 29 29 29 29 29 29 29 29 29 29 28 28 27 26 25 24 24 24 24 24 24 24 24 24 24 25 26 27 28 28 29 29 30 31 32 32 33
31 31 30 30 30 30 30 30 30 30 31 31 30 30 29 29 29 28 28 27 26 25 25 25 25 25 25 25 24 24 24 25 26 27 28 29 29 30 31 32 33 34
32 32 32 31 31 31 30 30 30 31 31 31 31 31 30 30 30 30 29 29 28 27 26 26 26 26 26 26 26 25 25 25 26 27 27 28 29 30 31 32 33 34
33 33 33 33 33 33 33 32 31 31 31 31 32 32 31 31 30 30 30 30 29 28 28 27 27 27 28 28 27 27 26 27 27 28 28 29 30 31 32 32 33 35
35 35 35 34 35 35 35 35 34 33 32 32 32 32 32 32 31 31 31 31 30 30 29 29 28 29 29 29 29 28 28 28 29 29 30 30 31 32 33 34 35 35
36 36 36 36 36 36 36 36 36 36 35 34 33 33 33 33 32 32 32 32 32 31 31 30 30 30 31 31 30 29 29 29 30 30 31 32 33 34 34 35 36 36
36 37 37 37 37 37 37 37 38 38 38 37 36 35 35 34 34 33 34 34 34 33 32 32 32 32 33 33 32 31 31 30 31 31 31 32 33 34 35 36 36 37
35 36 38 38 38 37 37 38 38 39 39 39 39 38 37 36 35 35 35 36 36 35 34 34 33 34 34 34 34 33 32 32 32 32 32 32 33 34 35 36 36 36
34 35 37 39 39 38 37 37 38 39 40 41 41 41 40 39 38 37 37 38 37 37 37 36 35 35 36 36 35 34 33 33 33 33 32 32 33 34 35 36 36 37
34 35 37 38 40 40 39 37 37 38 40 41 41 42 42 42 41 40 40 39 39 39 39 39 38 37 38 38 37 36 35 34 34 34 34 34 34 35 36 37 38 38
35 36 37 38 40 41 41 39 37 37 39 40 41 41 42 43 43 43 43 42 42 42 42 41 40 39 40 40 39 38 37 36 36 35 34 35 35 36 37 38 40 40
36 36 37 38 40 41 42 41 40 38 38 39 40 41 42 43 43 44 45 45 44 44 43 43 42 42 42 41 41 40 39 39 38 36 36 36 36 37 38 39 41 41
38 38 38 39 40 41 42 42 42 41 40 40 40 39 40 42 43 44 46 47 47 45 45 44 44 43 43 42 42 42 41 41 40 39 38 38 38 38 39 40 42 42
41 41 41 41 41 42 42 43 43 43 42 41 40 39 39 41 43 44 45 47 49 48 46 46 46 45 43 42 42 42 42 42 42 41 41 41 40 40 41 42 42 42
46 45 44 44 43 44 44 44 44 43 43 43 42 39 38 39 42 44 45 47 50 50 48 47 47 46 44 42 42 42 41 41 42 42 43 43 43 43 43 44 44 44
51 50 49 47 46 46 45 45 45 45 44 45 43 40 39 39 40 43 46 48 51 51 49 48 47 46 44 42 42 42 41 41 42 42 44 44 44 45 45 45 45 45
53 53 52 51 50 48 47 46 46 46 47 47 45 41 39 38 39 42 46 49 51 51 50 48 47 47 45 42 42 42 42 42 42 43 43 43 43 44 44 44 44 44
54 54 54 53 52 51 50 49 48 48 49 49 47 42 39 37 39 42 44 47 50 51 50 48 46 46 45 42 42 42 42 42 43 43 43 42 42 43 43 43 43 44
54 55 54 54 54 54 54 52 51 50 50 50 47 43 39 37 38 40 40 42 47 49 48 47 45 44 44 42 42 43 43 43 44 43 43 42 42 42 42 42 43 45
Wind_Direction
26 26 24 22 18 13 6 357 347 339 332 326 322 319 316 312 309 307 306 306 306 306 305 303 302 301 300 299 298 298 297 297 296 295 294 293 292 291 291 290 290 289
19 20 20 19 18 16 13 9 4 357 348 340 332 325 320 316 313 310 308 305 303 302 302 301 300 300 299 298 297 296 296 295 295 294 294 293 292 292 291 291 291 290
12 12 12 12 11 10 9 7 5 2 358 354 348 343 337 331 326 322 319 315 312 308 305 303 301 300 299 298 297 296 296 295 295 295 294 294 293 292 292 293 293 293
5 5 4 3 2 2 1 360 358 357 355 353 351 348 346 343 340 336 333 329 325 321 317 312 309 306 304 302 301 300 299 298 297 297 296 296 295 294 293 293 293 293
360 359 358 357 355 354 353 351 350 349 348 347 346 345 343 342 340 339 337 335 332 329 326 322 318 315 312 310 308 307 306 304 303 301 300 299 298 298 297 295 294 294
356 354 353 352 351 349 347 346 344 343 341 340 339 339 338 337 337 336 334 334 332 330 328 325 323 320 318 316 314 312 311 309 307 306 305 304 303 302 301 299 298 298
353 351 350 348 347 345 343 342 340 339 337 335 334 333 332 331 331 330 330 329 329 327 325 323 322 320 318 317 316 314 312 310 308 306 305 304 303 302 301 300 300 299
351 349 348 346 344 342 340 338 337 335 334 333 331 330 328 327 325 324 323 323 323 322 321 320 318 316 314 314 313 312 309 307 305 304 302 301 300 299 298 297 297 297
349 347 345 343 341 339 337 335 334 332 331 329 329 328 326 324 323 321 319 318 317 316 315 314 312 311 310 309 308 307 304 302 301 300 299 298 297 296 295 295 295 295
346 344 342 339 337 336 334 333 331 329 327 326 325 324 324 322 321 319 317 315 314 312 310 308 306 305 304 303 303 301 299 297 296 295 294 294 294 293 293 293 294 294
344 342 340 338 335 333 331 329 327 325 324 322 321 320 319 319 318 316 315 313 312 310 307 305 303 301 299 298 297 296 295 293 291 290 290 290 290 290 291 291 291 292
342 340 339 337 335 332 329 327 324 322 321 319 317 316 315 314 314 313 311 310 309 308 306 303 301 299 297 296 295 293 291 290 288 287 287 287 287 288 289 289 290 291
338 337 336 336 335 333 330 327 323 320 318 317 314 312 311 309 309 308 307 306 305 305 303 301 300 298 297 295 294 292 290 288 287 286 285 284 285 286 287 288 289 290
336 334 334 334 333 332 330 328 324 320 316 315 313 311 309 306 304 303 302 301 301 301 300 299 297 296 295 295 294 292 290 288 287 285 284 283 284 284 285 286 287 289
335 333 331 331 331 331 329 328 325 321 317 314 312 310 307 304 301 299 297 296 297 296 295 294 294 293 293 293 293 292 291 289 287 285 284 283 283 283 284 285 286 288
333 331 330 329 329 329 329 327 325 323 319 316 313 311 308 304 300 296 294 293 292 292 291 290 289 290 290 291 291 291 291 290 288 286 285 284 283 283 284 285 286 287
331 330 329 327 327 327 327 327 325 323 321 318 316 313 310 306 301 296 292 291 289 288 287 286 286 286 287 287 288 289 289 288 287 286 286 285 284 284 284 285 287 288
330 329 328 326 325 325 325 326 326 323 320 319 318 315 312 308 303 298 294 290 288 286 285 284 283 283 283 285 286 287 287 286 285 284 284 284 284 284 284 286 287 288
327 327 326 324 323 323 323 324 324 322 320 318 317 316 314 310 306 303 298 293 290 287 285 283 282 281 282 283 284 284 285 284 284 283 282 282 282 282 283 284 285 287
325 325 324 323 321 320 321 321 321 321 320 317 315 315 313 310 307 305 302 299 295 291 287 284 281 281 281 282 283 283 283 284 283 282 282 281 281 281 281 282 283 285
323 323 322 321 319 318 319 319 319 320 319 317 315 314 312 309 306 304 302 301 298 295 291 286 282 281 281 282 282 283 284 284 284 283 282 281 280 280 280 281 282 283
321 321 320 319 318 318 318 317 318 319 318 316 314 313 310 306 304 302 301 300 298 295 292 288 284 283 282 283 283 284 285 286 286 284 283 282 281 281 281 281 282 283
320 320 319 318 318 317 317 316 317 318 318 316 314 311 307 303 301 300 300 299 296 295 293 290 286 284 284 285 285 287 288 289 289 287 286 284 282 282 282 282 283 284
319 319 319 318 317 316 315 315 316 318 318 317 314 310 305 300 298 299 300 299 297 296 295 293 289 286 286 287 287 288 290 290 290 290 288 286 285 283 283 283 283 284
318 319 318 317 317 316 315 315 316 317 318 318 316 311 305 300 297 298 299 299 299 298 297 296 292 287 286 288 289 289 291 291 291 290 290 289 287 285 284 284 283 284
317 317 317 317 317 316 315 315 315 316 318 318 316 311 307 301 295 294 296 299 302 302 299 297 295 290 288 289 290 290 291 292 292 291 290 289 288 287 286 285 284 285
Height
5704 5702 5700 5698 5696 5694 5692 5690 5689 5687 5686 5684 5683 5682 5682 5681 5681 5680 5679 5677 5676 5675 5674 5673 5672 5672 5670 5669 5668 5667 5666 5665 5664 5663 5662 5661 5660 5658 5657 5656 5654 5653
5706 5705 5703 5701 5699 5697 5695 5693 5691 5689 5687 5685 5683 5682 5680 5679 5677 5676 5676 5675 5674 5673 5672 5671 5669 5668 5667 5666 5665 5664 5663 5661 5660 5659 5658 5656 5655 5653 5652 5651 5649 5648
5708 5706 5704 5702 5701 5699 5697 5695 5693 5691 5689 5686 5684 5682 5680 5678 5676 5674 5672 5671 5670 5669 5668 5667 5666 5665 5664 5663 5661 5660 5659 5657 5656 5654 5653 5651 5650 5648 5647 5645 5644 5643
5708 5706 5705 5703 5701 5699 5698 5696 5694 5692 5690 5688 5685 5683 5681 5678 5676 5674 5672 5670 5668 5666 5665 5663 5662 5661 5660 5658 5657 5656 5654 5653 5652 5650 5648 5647 5645 5644 5642 5641 5639 5638
5708 5706 5704 5703 5701 5699 5697 5695 5694 5692 5690 5688 5686 5683 5681 5678 5676 5674 5671 5669 5667 5665 5663 5661 5659 5658 5656 5655 5653 5652 5651 5649 5648 5646 5645 5643 5641 5640 5638 5637 5636 5634
5708 5706 5704 5702 5700 5698 5696 5694 5692 5690 5688 5686 5684 5682 5680 5678 5676 5673 5671 5669 5666 5664 5662 5660 5658 5656 5654 5652 5651 5649 5647 5646 5644 5643 5641 5639 5638 5636 5635 5633 5632 5630
5707 5705 5702 5700 5699 5696 5694 5693 5691 5689 5686 5684 5682 5680 5678 5676 5674 5671 5669 5667 5665 5662 5660 5658 5656 5654 5652 5650 5648 5647 5645 5643 5641 5640 5638 5636 5635 5633 5631 5630 5628 5627
5705 5703 5701 5698 5696 5694 5692 5690 5688 5686 5684 5682 5680 5677 5675 5673 5671 5668 5666 5664 5662 5660 5658 5655 5653 5651 5649 5647 5645 5644 5642 5640 5638 5637 5635 5633 5631 5630 5628 5626 5625 5623
5704 5701 5699 5696 5693 5691 5689 5687 5685 5683 5681 5679 5677 5674 5672 5670 5668 5665 5663 5661 5659 5657 5654 5652 5650 5648 5645 5644 5642 5640 5638 5637 5635 5633 5631 5630 5628 5626 5624 5622 5621 5619
5703 5700 5698 5695 5692 5689 5686 5684 5681 5679 5677 5675 5673 5671 5669 5666 5664 5662 5660 5657 5655 5653 5651 5649 5647 5644 5642 5640 5638 5637 5635 5633 5631 5629 5627 5626 5624 5622 5620 5618 5616 5614
5701 5698 5696 5694 5691 5688 5685 5682 5679 5676 5674 5671 5669 5667 5665 5663 5661 5658 5656 5654 5651 5649 5647 5645 5643 5641 5638 5636 5635 5633 5631 5629 5627 5625 5623 5621 5619 5617 5615 5614 5612 5609
5698 5696 5693 5691 5689 5686 5683 5680 5677 5674 5671 5668 5666 5663 5661 5659 5657 5654 5652 5650 5648 5645 5643 5641 5639 5636 5634 5632 5630 5629 5627 5625 5623 5621 5618 5616 5614 5612 5610 5609 5607 5605
5695 5692 5690 5688 5685 5683 5680 5678 5675 5672 5668 5666 5663 5660 5658 5655 5653 5650 5648 5645 5643 5641 5639 5637 5635 5632 5629 5627 5625 5624 5622 5620 5618 5616 5614 5612 5610 5607 5605 5603 5602 5600
5692 5689 5686 5684 5681 5679 5676 5674 5671 5668 5665 5662 5659 5656 5654 5651 5649 5646 5644 5641 5638 5636 5634 5632 5630 5627 5625 5622 5620 5619 5617 5615 5613 5611 5609 5607 5605 5603 5600 5598 5596 5595
5689 5686 5683 5680 5677 5675 5672 5669 5667 5664 5661 5658 5655 5653 5650 5647 5645 5642 5639 5636 5634 5631 5629 5627 5625 5622 5619 5617 5615 5613 5611 5610 5608 5606 5604 5602 5600 5598 5595 5593 5591 5590
5685 5683 5679 5676 5673 5670 5668 5665 5663 5660 5657 5654 5651 5648 5645 5642 5640 5637 5634 5631 5629 5626 5624 5622 5619 5617 5614 5611 5609 5608 5606 5604 5602 5600 5598 5597 5594 5592 5590 5588 5586 5584
5681 5678 5675 5672 5668 5665 5663 5661 5658 5655 5652 5649 5646 5643 5640 5638 5635 5632 5629 5626 5623 5621 5618 5616 5614 5611 5608 5606 5604 5602 5601 5599 5597 5595 5593 5591 5589 5587 5585 5582 5580 5579
5677 5674 5671 5667 5664 5661 5658 5655 5653 5650 5647 5644 5641 5638 5636 5633 5630 5626 5623 5621 5618 5615 5612 5610 5608 5606 5603 5600 5598 5597 5595 5593 5591 5590 5588 5585 5583 5581 5579 5577 5574 5573
5672 5669 5666 5662 5659 5656 5653 5650 5647 5644 5642 5638 5635 5633 5630 5627 5624 5621 5618 5615 5612 5610 5607 5604 5602 5599 5597 5595 5593 5591 5589 5587 5586 5584 5582 5580 5578 5575 5573 5571 5569 5567
5668 5664 5661 5658 5654 5651 5647 5644 5641 5638 5636 5632 5629 5627 5624 5621 5619 5616 5612 5609 5606 5604 5601 5598 5595 5593 5591 5589 5587 5585 5583 5582 5580 5579 5577 5574 5572 5570 5568 5565 5562 5561
5664 5660 5657 5653 5649 5645 5642 5639 5635 5632 5630 5626 5623 5621 5618 5615 5612 5609 5606 5603 5600 5597 5595 5592 5589 5586 5585 5583 5582 5580 5578 5576 5575 5573 5571 5569 5566 5564 5562 5559 5556 5555
5661 5657 5653 5648 5644 5640 5637 5633 5630 5627 5624 5620 5617 5615 5612 5609 5606 5603 5600 5597 5593 5591 5589 5586 5582 5580 5579 5578 5576 5574 5572 5571 5569 5568 5565 5563 5560 5558 5555 5553 5551 5549
5656 5652 5648 5644 5640 5636 5632 5628 5624 5621 5618 5614 5611 5608 5605 5602 5599 5596 5593 5590 5587 5584 5582 5580 5577 5574 5573 5572 5570 5568 5567 5565 5564 5562 5559 5557 5554 5551 5549 5546 5544 5542
5651 5647 5643 5639 5635 5631 5626 5622 5619 5615 5612 5608 5605 5602 5599 5596 5592 5590 5587 5584 5581 5578 5576 5575 5572 5569 5567 5567 5565 5563 5561 5560 5558 5556 5554 5551 5549 5545 5542 5540 5539 5536
5645 5641 5637 5634 5630 5625 5621 5617 5613 5609 5605 5602 5599 5596 5593 5589 5586 5583 5581 5577 5575 5573 5571 5569 5567 5564 5562 5561 5559 5557 5556 5554 5552 5550 5548 5546 5543 5540 5537 5535 5533 5531
5639 5635 5631 5627 5624 5620 5615 5611 5607 5603 5599 5596 5592 5589 5586 5583 5579 5577 5575 5572 5569 5567 5565 5563 5562 5560 5557 5556 5554 5552 5550 5549 5547 5545 5542 5540 5537 5534 5532 5530 5527 5525